Tracking 25710 objects as of 5-Jul-2022
HD Live streaming from Space Station
objects crossing your sky now

FENGYUN 1C DEB

Track FENGYUN 1C DEB now!
10-day predictions


NORAD ID: 29805
Int'l Code: 1999-025CX
Perigee: 860.3 km
Apogee: 1,138.2 km
Inclination: 99.6 °
Period: 105.0 minutes
Semi major axis: 7370 km
RCS: 0.0153 m2 (small)
Launch date: May 10, 1999
Source: People's Republic of China (PRC)
Launch site: Taiyaun Space Center, China (TSC)

Note: This is SATELLITE DEBRIS
aabbcc
Your satellite tracking list
Your tracking list is empty




NASA's NSSDC Master Catalog

Two Line Element Set (TLE):
1 29805U 99025CX  22185.56637086  .00000052  00000-0  95960-4 0  9998
2 29805  99.6294 225.8850 0188521 250.6763 107.3914 13.72068142774590
Source of the keplerian elements: AFSPC